Fort Polk, LA

7:38 AM CST on January 19, 2018 (GMT -0600)
Fort Polk

Weather History for KAQV - October, 2012

Change the Weather History Date:

Friday, October 19, 2012

  Actual Average (KPOE) Record (KPOE)
Temperature  
Mean Temperature 61 °F -  
Max Temperature 77 °F 75 °F 89 °F (2004)
Min Temperature 45 °F 55 °F 42 °F (1996)
Degree Days  
Heating Degree Days 4    
Growing Degree Days 11 (Base 50)    
Moisture  
Dew Point 41 °F    
Average Humidity 61    
Maximum Humidity 93    
Minimum Humidity 19    
Precipitation  
Precipitation 0.01 in - - ()
Sea Level Pressure  
Sea Level Pressure 29.93 in    
Wind  
Wind Speed 1 mph (WSW)    
Max Wind Speed 7 mph    
Max Gust Speed 21 mph    
Visibility 10 miles    
Events      
Averages and records for this station are not official NWS values.
T = Trace of Precipitation, MM = Missing Value Source: NWS Daily Summary

Daily Weather History Graph

Daily Weather History Graph

Search for Another Location

Airport or City:

Trip Planner

Search our weather history database for the weather conditions in past years. The results will help you decide how hot, cold, wet, or windy it might be!

Date:

Astronomy

Oct. 19, 2012 Rise Set
Actual Time 7:19 AM CDT 6:36 PM CDT
Civil Twilight 6:54 AM CDT 7:00 PM CDT
Nautical Twilight 6:26 AM CDT 7:29 PM CDT
Astronomical Twilight 5:58 AM CDT 7:57 PM CDT
Moon 11:50 AM CDT 10:27 PM CDT
Length of Visible Light 12h 06m
Length of Day
11h 16m
Waxing Crescent, 24% of the Moon is Illuminated
Oct 19
Waxing Crescent
Oct 21
First Quarter
Oct 29
Full
Nov 6
Last Quarter
Nov 13
New

Hourly Weather History & Observations

Time (CDT) Temp. Windchill Dew Point Humidity Pressure Visibility Wind Dir Wind Speed Gust Speed Precip Events Conditions
12:56 AM 48.9 °F - 46.9 °F 93% 29.95 in 10.0 mi Calm Calm - 0.01 in   Clear
1:56 AM 48.0 °F - 44.1 °F 86% 29.95 in 10.0 mi Calm Calm - N/A   Clear
2:56 AM 46.9 °F - 44.1 °F 90% 29.94 in 10.0 mi Calm Calm - N/A   Clear
3:56 AM 46.9 °F - 44.1 °F 90% 29.94 in 10.0 mi Calm Calm - N/A   Clear
4:56 AM 46.0 °F - 44.1 °F 93% 29.94 in 10.0 mi Calm Calm - N/A   Clear
5:56 AM 45.0 °F - 43.0 °F 93% 29.94 in 9.0 mi Calm Calm - N/A   Clear
6:56 AM 45.0 °F 43.5 °F 42.1 °F 90% 29.95 in 9.0 mi WSW 3.5 mph - N/A   Clear
7:56 AM 46.9 °F - 44.1 °F 90% 29.96 in 10.0 mi Calm Calm - N/A   Clear
8:56 AM 62.1 °F - 46.0 °F 56% 29.96 in 10.0 mi WSW 3.5 mph - N/A   Clear
9:56 AM 69.1 °F - 41.0 °F 36% 29.97 in 10.0 mi Variable 3.5 mph - N/A   Clear
10:56 AM 70.0 °F - 37.0 °F 30% 29.99 in 10.0 mi Variable 6.9 mph - N/A   Clear
11:56 AM 73.0 °F - 35.1 °F 25% 29.98 in 10.0 mi Variable 5.8 mph 17.3 mph N/A   Clear
12:56 PM 75.0 °F - 34.0 °F 22% 29.96 in 10.0 mi Variable 4.6 mph 20.7 mph N/A   Clear
1:56 PM 77.0 °F - 34.0 °F 21% 29.92 in 10.0 mi Variable 4.6 mph - N/A   Clear
2:56 PM 77.0 °F - 30.9 °F 19% 29.90 in 10.0 mi Variable 5.8 mph - N/A   Clear
3:56 PM 77.0 °F - 32.0 °F 19% 29.89 in 10.0 mi Variable 4.6 mph 16.1 mph N/A   Clear
4:56 PM 75.9 °F - 35.1 °F 23% 29.89 in 10.0 mi Variable 5.8 mph - N/A   Clear
5:56 PM 73.0 °F - 35.1 °F 25% 29.89 in 10.0 mi Calm Calm - N/A   Clear
6:56 PM 61.0 °F - 43.0 °F 52% 29.89 in 7.0 mi Calm Calm - N/A   Clear
7:56 PM 55.9 °F - 48.0 °F 75% 29.91 in 4.0 mi Calm Calm - N/A   Haze
8:56 PM 53.1 °F - 48.0 °F 83% 29.92 in 9.0 mi Calm Calm - N/A   Clear
9:56 PM 51.1 °F - 48.0 °F 89% 29.92 in 10.0 mi Calm Calm - N/A   Clear
10:56 PM 51.1 °F - 46.9 °F 86% 29.93 in 10.0 mi Calm Calm - N/A   Clear
11:56 PM 51.1 °F - 46.9 °F 86% 29.93 in 10.0 mi Calm Calm - N/A   Clear